Regional Weather Roundup
Issued by NWS

Home | Current Version | Previous Version | Graphics & Text | Print | Product List | Glossary On
Versions: 1 2 3 4 5 6 7 8 9 10 11 12 13 14 15 16 17 18 19 20 21 22 23 24 25 26 27 28 29 30 31 32 33 34 35 36 37 38 39 40 41 42 43 44 45 46
000
ASUS45 KSLC 020910
RWRUT

UTAH REGIONAL WEATHER ROUNDUP
NATIONAL WEATHER SERVICE SALT LAKE CITY UT
300 AM MDT WED SEP 02 2015

UTZ001>011-023>025-021000-

NORTHERN UTAH

CITY           SKY/WX    TMP DP  RH WIND       PRES   REMARKS
BRIGHAM CITY   PTCLDY    81  29  14 S21       29.93R
HILL AFB       MOCLDY    77  38  24 S17       29.98R
LOGAN          CLEAR     60  43  53 CALM      29.93R
OGDEN          MOCLDY    79  38  22 S17       29.95R
PROVO AIRPORT  CLEAR     66  45  45 SE7       30.04R
SALT LAKE CITY MOCLDY    79  40  24 S25G32    29.93S
VERNAL         CLEAR     59  44  57 W6        30.14S
WENDOVER       CLEAR     79  27  14 SW14G20   29.92R
HEBER CITY     CLEAR     55  43  62 CALM      30.12R
WEST JORDAN    CLEAR     73  45  35 S13       30.01R

$$

UTZ012>022-026-027-021000-

SOUTHERN/CENTRAL UTAH

CITY           SKY/WX    TMP DP  RH WIND       PRES   REMARKS
BLANDING       PTCLDY    64  45  50 NE8       30.26S
BRYCE CANYON   CLEAR     46  41  82 SW5       30.31F
CEDAR CITY     CLEAR     66  42  41 S9        30.14F
DELTA          CLEAR     69  36  29 S12       30.05R
HANKSVILLE     CLEAR     59  52  77 CALM      30.09F
MILFORD        CLEAR     67  39  35 SW13      30.08S
MOAB/CYNLANDS  CLEAR     65  55  70 CALM      30.08S
PRICE          PTCLDY    58  45  62 NE10      30.18S
ST GEORGE      SUNNY     77  46  33 E10       29.98S
KANAB          CLEAR     61  54  77 N6        30.19S

$$

REGIONAL REPORTS     COLORADO/ARIZONA

CITY           SKY/WX    TMP DP  RH WIND       PRES   REMARKS
CRAIG, CO      CLEAR     48  42  80 CALM      30.22S
GRAND JUNCTION PTCLDY    64  49  57 E9        30.13F
RIFLE          PTCLDY    54  50  86 CALM      30.23S
MONTROSE       CLEAR     60  49  66 CALM      30.23S
CORTEZ         PTCLDY    56  44  64 E6        30.21S
PAGE, AZ       CLEAR     72  50  45 CALM      30.07S
GRAND CANYON   PTCLDY    51  49  92 CALM      30.28S
KINGMAN        CLEAR     75  51  43 S10       30.02S
FLAGSTAFF      PTCLDY    50  48  93 CALM      30.31F

$$

REGIONAL REPORTS    NEVADA/IDAHO/WYOMING

CITY           SKY/WX    TMP DP  RH WIND       PRES   REMARKS
LAS VEGAS, NV  MOCLDY    86  54  33 S5        29.85S
ELY            CLEAR     62  37  39 SW10      30.14R
ELKO           CLEAR     59  29  31 N3        29.99S
POCATELLO, ID  CLEAR     66  39  37 VRB5      29.87S
BURLEY         PTCLDY    56  42  59 SW5       29.85S
EVANSTON, WY   CLEAR     57  38  48 S9        30.17S
ROCK SPRINGS   PTCLDY    57  42  57 S8        30.16S
KEMMERER       PTCLDY    54  36  50 S5        30.18S

$$



USA.gov is the U.S. government's official web portal to all federal, state and local government web resources and services.